Notices

What's New in latest Release from April 7th, 2021:

- Updated Glossary, including Speed of Maximum Gust, and Total Hourly Precipitation

- Updated national and regional climate services offices contacts and prices information

- Addition of station inventory lists for 1981-2010, 1971-2000, and 1961-1990 Normals.

If you haven't already, please take our survey and provide feedback about our website: https://eccc.sondage-survey.ca/f/LanguageSelection.aspx?s=442ca660-fcf1-47c0-95a9-59707d6fd709

Hourly Data Report for October 28, 2019

PINAWA
MANITOBA
Current Station Operator: ECCC - MSC

50°10'38.020" N
96°03'53.000" W
268.00 m
503B1ER
71448
WEA

Download Data

Hourly Data (October 2019)
Hourly Data Report for October 28, 2019
TIME
LST
Temp Definition
°C
Dew Point Definition
°C
Rel Hum Definition
%
Precip. Amount Definition
mm

Wind Dir Definition
10's deg

Wind Spd Definition
km/h
Visibility Definition
km
Stn Press Definition
kPa
Hmdx Definition


Wind Chill Definition


Weather Definition


00:00 -2.5 LegendMM LegendMM 0.0 26 9   98.11   -6 LegendNANA
01:00 -2.5 LegendMM LegendMM 0.0 25 7   98.12   -5 LegendNANA
02:00 -2.6 LegendMM LegendMM 0.0 24 7   98.09   -5 LegendNANA
03:00 -3.2 LegendMM LegendMM 0.0 24 7   98.08   -6 LegendNANA
04:00 -3.6 LegendMM LegendMM 0.0 26 10   98.05   -8 LegendNANA
05:00 -3.6 LegendMM LegendMM 0.0 24 8   98.07   -7 LegendNANA
06:00 -3.8 LegendMM LegendMM 0.0 24 12   98.07   -8 LegendNANA
07:00 -4.8 LegendMM LegendMM 0.0 24 11   98.09   -9 LegendNANA
08:00 -4.9 LegendMM LegendMM 0.0 23 6   98.13   -8 LegendNANA
09:00 -4.4 LegendMM LegendMM 0.0 24 8   98.15   -8 LegendNANA
10:00 -4.2 LegendMM LegendMM 0.0 22 6   98.15   -7 LegendNANA
11:00 -4.0 LegendMM LegendMM 0.0 24 7   98.18   -7 LegendNANA
12:00 -3.5 LegendMM LegendMM 0.0 23 7   98.18   -6 LegendNANA
13:00 -3.4 LegendMM LegendMM 0.0 25 8   98.18   -7 LegendNANA
14:00 -3.0 LegendMM LegendMM 0.0 22 6   98.17   -5 LegendNANA
15:00 -2.9 LegendMM LegendMM 0.0 22 7   98.23   -6 LegendNANA
16:00 -2.8 LegendMM LegendMM 0.0 18 7   98.24   -6 LegendNANA
17:00 -3.5 LegendMM LegendMM 0.0 15 5   98.22   -6 LegendNANA
18:00 -4.8 LegendMM LegendMM 0.0 11 4   98.21   -7 LegendNANA
19:00 -4.0 LegendMM LegendMM 0.0 12 5   98.21   -6 LegendNANA
20:00 -3.2 LegendMM LegendMM 0.0 11 7   98.16   -6 LegendNANA
21:00 -3.3 LegendMM LegendMM 0.0 11 5   98.15   -5 LegendNANA
22:00 -2.5 LegendMM LegendMM 0.0 16 6   98.14   -5 LegendNANA
23:00 -3.0 LegendMM LegendMM 0.0 22 5   98.15   -5 LegendNANA

Notes on Data Quality.

Legend

  • E = Estimated
  • M = Missing
  • NA = Not Available*
  • [empty] = Indicates an unobserved value
Date modified: